contact:dominique.lefevre@mio.osupytheas.fr, maurice.libes@osupytheas.fr, didier.mallarino@osupytheas.fr
Project:EMSO http://www.emso-fr.org/EMSO-France
Depth: 2436.0 m
Title:EMSO Ligure Ouest : Data MII capteur MICROCAT
DateTime_Computer,Latitude,Longitude,Temperature,Conductivity,Pressure,DateTime_Instrument
DateTime_Computer,Latitude,Longitude,degC,S m-1,dbar,DateTime_Instrument
2022-09-17T00:01:48Z,42.805,6.029,13.3039,4.60135,2470.437,2022-9-17T02:03:41Z
2022-09-17T00:04:51Z,42.805,6.029,13.3031,4.60081,2470.46,2022-9-17T02:06:44Z
2022-09-17T00:07:54Z,42.805,6.029,13.3022,4.60099,2470.474,2022-9-17T02:09:47Z
2022-09-17T00:10:58Z,42.805,6.029,13.3024,4.60092,2470.437,2022-9-17T02:12:50Z
2022-09-17T00:14:01Z,42.805,6.029,13.3018,4.60110,2470.474,2022-9-17T02:15:53Z
2022-09-17T00:17:04Z,42.805,6.029,13.3024,4.60122,2470.45,2022-9-17T02:18:56Z
2022-09-17T00:20:07Z,42.805,6.029,13.3036,4.60079,2470.413,2022-9-17T02:21:59Z
2022-09-17T00:23:10Z,42.805,6.029,13.3023,4.60092,2470.437,2022-9-17T02:25:03Z
2022-09-17T00:26:13Z,42.805,6.029,13.3029,4.60112,2470.474,2022-9-17T02:28:06Z
2022-09-17T00:29:16Z,42.805,6.029,13.3036,4.60107,2470.46,2022-9-17T02:31:09Z
2022-09-17T00:32:19Z,42.805,6.029,13.3032,4.60122,2470.45,2022-9-17T02:34:12Z
2022-09-17T00:35:22Z,42.805,6.029,13.3031,4.60122,2470.46,2022-9-17T02:37:15Z
2022-09-17T00:38:26Z,42.805,6.029,13.3031,4.60107,2470.437,2022-9-17T02:40:18Z
2022-09-17T00:41:29Z,42.805,6.029,13.3023,4.60093,2470.46,2022-9-17T02:43:21Z
2022-09-17T00:44:32Z,42.805,6.029,13.3017,4.60092,2470.437,2022-9-17T02:46:24Z
2022-09-17T00:47:35Z,42.805,6.029,13.3024,4.60103,2470.45,2022-9-17T02:49:28Z
2022-09-17T00:50:38Z,42.805,6.029,13.3019,4.60093,2470.45,2022-9-17T02:52:31Z
2022-09-17T00:53:41Z,42.805,6.029,13.3023,4.60110,2470.45,2022-9-17T02:55:34Z
2022-09-17T00:56:44Z,42.805,6.029,13.3029,4.60111,2470.437,2022-9-17T02:58:37Z
2022-09-17T00:59:47Z,42.805,6.029,13.3025,4.60114,2470.413,2022-9-17T03:01:40Z
2022-09-17T01:02:51Z,42.805,6.029,13.3035,4.60142,2470.474,2022-9-17T03:04:43Z
2022-09-17T01:05:54Z,42.805,6.029,13.3032,4.60159,2470.437,2022-9-17T03:07:46Z
2022-09-17T01:08:57Z,42.805,6.029,13.3046,4.60132,2470.437,2022-9-17T03:10:49Z
2022-09-17T01:12:00Z,42.805,6.029,13.3018,4.60107,2470.413,2022-9-17T03:13:52Z
2022-09-17T01:15:03Z,42.805,6.029,13.3026,4.60127,2470.437,2022-9-17T03:16:56Z
2022-09-17T01:18:06Z,42.805,6.029,13.3019,4.60129,2470.45,2022-9-17T03:19:59Z
2022-09-17T01:21:09Z,42.805,6.029,13.3025,4.60113,2470.427,2022-9-17T03:23:02Z
2022-09-17T01:24:12Z,42.805,6.029,13.3035,4.60117,2470.427,2022-9-17T03:26:05Z
2022-09-17T01:27:16Z,42.805,6.029,13.3033,4.60113,2470.437,2022-9-17T03:29:08Z
2022-09-17T01:30:19Z,42.805,6.029,13.3056,4.60114,2470.437,2022-9-17T03:32:11Z
2022-09-17T01:33:22Z,42.805,6.029,13.3047,4.60089,2470.45,2022-9-17T03:35:14Z
2022-09-17T01:36:25Z,42.805,6.029,13.3063,4.60131,2470.366,2022-9-17T03:38:17Z
2022-09-17T01:39:28Z,42.805,6.029,13.3054,4.60124,2470.413,2022-9-17T03:41:21Z
2022-09-17T01:42:31Z,42.805,6.029,13.3039,4.60132,2470.413,2022-9-17T03:44:24Z
2022-09-17T01:45:34Z,42.805,6.029,13.3046,4.60126,2470.413,2022-9-17T03:47:27Z
2022-09-17T01:48:37Z,42.805,6.029,13.3054,4.60111,2470.427,2022-9-17T03:50:30Z
2022-09-17T01:51:41Z,42.805,6.029,13.3069,4.60137,2470.437,2022-9-17T03:53:33Z
2022-09-17T01:54:44Z,42.805,6.029,13.3067,4.60130,2470.39,2022-9-17T03:56:36Z
2022-09-17T01:57:47Z,42.805,6.029,13.3035,4.60144,2470.45,2022-9-17T03:59:39Z
2022-09-17T02:00:50Z,42.805,6.029,13.3052,4.60171,2470.45,2022-9-17T04:02:42Z
2022-09-17T02:03:53Z,42.805,6.029,13.3050,4.60111,2470.404,2022-9-17T04:05:46Z
2022-09-17T02:06:56Z,42.805,6.029,13.3043,4.60124,2470.413,2022-9-17T04:08:49Z
2022-09-17T02:09:59Z,42.805,6.029,13.3070,4.60140,2470.39,2022-9-17T04:11:52Z
2022-09-17T02:13:02Z,42.805,6.029,13.3061,4.60127,2470.39,2022-9-17T04:14:55Z
2022-09-17T02:16:06Z,42.805,6.029,13.3054,4.60150,2470.404,2022-9-17T04:17:58Z
2022-09-17T02:19:09Z,42.805,6.029,13.3057,4.60134,2470.413,2022-9-17T04:21:01Z
2022-09-17T02:22:12Z,42.805,6.029,13.3063,4.60150,2470.427,2022-9-17T04:24:04Z
2022-09-17T02:25:15Z,42.805,6.029,13.3073,4.60114,2470.404,2022-9-17T04:27:07Z
2022-09-17T02:28:18Z,42.805,6.029,13.3076,4.60131,2470.413,2022-9-17T04:30:11Z
2022-09-17T02:31:21Z,42.805,6.029,13.3051,4.60118,2470.413,2022-9-17T04:33:14Z
2022-09-17T02:34:24Z,42.805,6.029,13.3074,4.60131,2470.39,2022-9-17T04:36:17Z
2022-09-17T02:37:27Z,42.805,6.029,13.3065,4.60137,2470.404,2022-9-17T04:39:20Z
2022-09-17T02:40:31Z,42.805,6.029,13.3027,4.60125,2470.413,2022-9-17T04:42:23Z
2022-09-17T02:43:34Z,42.805,6.029,13.3058,4.60102,2470.427,2022-9-17T04:45:26Z
2022-09-17T02:46:37Z,42.805,6.029,13.3073,4.60093,2470.413,2022-9-17T04:48:29Z
2022-09-17T02:49:40Z,42.805,6.029,13.3084,4.60090,2470.38,2022-9-17T04:51:32Z
2022-09-17T02:52:43Z,42.805,6.029,13.3064,4.60116,2470.39,2022-9-17T04:54:36Z
2022-09-17T02:55:46Z,42.805,6.029,13.3076,4.60140,2470.404,2022-9-17T04:57:39Z
2022-09-17T02:58:49Z,42.805,6.029,13.3085,4.60107,2470.39,2022-9-17T05:00:42Z
2022-09-17T03:01:52Z,42.805,6.029,13.3065,4.60144,2470.366,2022-9-17T05:03:45Z
2022-09-17T03:04:55Z,42.805,6.029,13.3068,4.60126,2470.404,2022-9-17T05:06:48Z
2022-09-17T03:07:59Z,42.805,6.029,13.3067,4.60140,2470.39,2022-9-17T05:09:51Z
2022-09-17T03:11:02Z,42.805,6.029,13.3076,4.60152,2470.39,2022-9-17T05:12:54Z
2022-09-17T03:14:05Z,42.805,6.029,13.3091,4.60127,2470.38,2022-9-17T05:15:57Z
2022-09-17T03:17:08Z,42.805,6.029,13.3034,4.60111,2470.366,2022-9-17T05:19:01Z
2022-09-17T03:20:11Z,42.805,6.029,13.3068,4.60123,2470.404,2022-9-17T05:22:04Z
2022-09-17T03:23:14Z,42.805,6.029,13.3076,4.60120,2470.39,2022-9-17T05:25:07Z
2022-09-17T03:26:17Z,42.805,6.029,13.3092,4.60094,2470.39,2022-9-17T05:28:10Z
2022-09-17T03:29:20Z,42.805,6.029,13.3095,4.60102,2470.38,2022-9-17T05:31:13Z
2022-09-17T03:32:24Z,42.805,6.029,13.3101,4.60082,2470.427,2022-9-17T05:34:16Z
2022-09-17T03:35:27Z,42.805,6.029,13.3088,4.60104,2470.343,2022-9-17T05:37:19Z
2022-09-17T03:38:30Z,42.805,6.029,13.3060,4.60096,2470.38,2022-9-17T05:40:22Z
2022-09-17T03:41:33Z,42.805,6.029,13.3069,4.60079,2470.357,2022-9-17T05:43:25Z
2022-09-17T03:44:36Z,42.805,6.029,13.3058,4.60098,2470.39,2022-9-17T05:46:29Z
2022-09-17T03:47:39Z,42.805,6.029,13.3058,4.60097,2470.38,2022-9-17T05:49:32Z
2022-09-17T03:50:42Z,42.805,6.029,13.3051,4.60099,2470.404,2022-9-17T05:52:35Z
2022-09-17T03:53:45Z,42.805,6.029,13.3063,4.60148,2470.366,2022-9-17T05:55:38Z
2022-09-17T03:56:49Z,42.805,6.029,13.3061,4.60096,2470.366,2022-9-17T05:58:41Z
2022-09-17T03:59:52Z,42.805,6.029,13.3056,4.60110,2470.404,2022-9-17T06:01:44Z
2022-09-17T04:02:55Z,42.805,6.029,13.3036,4.60102,2470.404,2022-9-17T06:04:47Z
2022-09-17T04:05:58Z,42.805,6.029,13.3034,4.60099,2470.366,2022-9-17T06:07:50Z
2022-09-17T04:09:01Z,42.805,6.029,13.3037,4.60104,2470.404,2022-9-17T06:10:54Z
2022-09-17T04:12:04Z,42.805,6.029,13.3043,4.60116,2470.38,2022-9-17T06:13:57Z
2022-09-17T04:15:07Z,42.805,6.029,13.3058,4.60084,2470.366,2022-9-17T06:17:00Z
2022-09-17T04:18:10Z,42.805,6.029,13.3073,4.60076,2470.366,2022-9-17T06:20:03Z
2022-09-17T04:21:14Z,42.805,6.029,13.3062,4.60097,2470.357,2022-9-17T06:23:06Z
2022-09-17T04:24:17Z,42.805,6.029,13.3048,4.60087,2470.38,2022-9-17T06:26:09Z
2022-09-17T04:27:20Z,42.805,6.029,13.3084,4.60073,2470.366,2022-9-17T06:29:12Z
2022-09-17T04:30:23Z,42.805,6.029,13.3048,4.60082,2470.366,2022-9-17T06:32:15Z
2022-09-17T04:33:26Z,42.805,6.029,13.3029,4.60073,2470.38,2022-9-17T06:35:19Z
2022-09-17T04:36:29Z,42.805,6.029,13.3026,4.60070,2470.39,2022-9-17T06:38:22Z
2022-09-17T04:39:32Z,42.805,6.029,13.3031,4.60062,2470.343,2022-9-17T06:41:25Z
2022-09-17T04:42:35Z,42.805,6.029,13.3033,4.60062,2470.357,2022-9-17T06:44:28Z
2022-09-17T04:45:39Z,42.805,6.029,13.3036,4.60062,2470.343,2022-9-17T06:47:31Z
2022-09-17T04:48:42Z,42.805,6.029,13.3043,4.60079,2470.343,2022-9-17T06:50:34Z
2022-09-17T04:51:45Z,42.805,6.029,13.3022,4.60067,2470.343,2022-9-17T06:53:37Z
2022-09-17T04:54:48Z,42.805,6.029,13.3022,4.60069,2470.366,2022-9-17T06:56:40Z
2022-09-17T04:57:51Z,42.805,6.029,13.3029,4.60069,2470.357,2022-9-17T06:59:44Z
2022-09-17T05:00:54Z,42.805,6.029,13.3031,4.60074,2470.357,2022-9-17T07:02:47Z
2022-09-17T05:03:57Z,42.805,6.029,13.3039,4.60067,2470.343,2022-9-17T07:05:50Z
2022-09-17T05:07:00Z,42.805,6.029,13.3041,4.60075,2470.357,2022-9-17T07:08:53Z
2022-09-17T05:10:04Z,42.805,6.029,13.3046,4.60078,2470.39,2022-9-17T07:11:56Z
2022-09-17T05:13:07Z,42.805,6.029,13.3051,4.60075,2470.38,2022-9-17T07:14:59Z
2022-09-17T05:16:10Z,42.805,6.029,13.3054,4.60073,2470.32,2022-9-17T07:18:02Z
2022-09-17T05:19:13Z,42.805,6.029,13.3044,4.60088,2470.334,2022-9-17T07:21:05Z
2022-09-17T05:22:16Z,42.805,6.029,13.3039,4.60099,2470.366,2022-9-17T07:24:09Z
2022-09-17T05:25:19Z,42.805,6.029,13.3041,4.60078,2470.334,2022-9-17T07:27:12Z
2022-09-17T05:28:22Z,42.805,6.029,13.3041,4.60071,2470.343,2022-9-17T07:30:15Z
2022-09-17T05:31:25Z,42.805,6.029,13.3028,4.60072,2470.343,2022-9-17T07:33:18Z
2022-09-17T05:34:28Z,42.805,6.029,13.3024,4.60067,2470.334,2022-9-17T07:36:21Z
2022-09-17T05:37:32Z,42.805,6.029,13.3034,4.60070,2470.366,2022-9-17T07:39:24Z
2022-09-17T05:40:35Z,42.805,6.029,13.3035,4.60070,2470.32,2022-9-17T07:42:27Z
2022-09-17T05:43:38Z,42.805,6.029,13.3041,4.60078,2470.32,2022-9-17T07:45:30Z
2022-09-17T05:46:41Z,42.805,6.029,13.3045,4.60064,2470.38,2022-9-17T07:48:34Z
2022-09-17T05:49:44Z,42.805,6.029,13.3048,4.60064,2470.343,2022-9-17T07:51:37Z
2022-09-17T05:52:47Z,42.805,6.029,13.3049,4.60072,2470.343,2022-9-17T07:54:40Z
2022-09-17T05:55:50Z,42.805,6.029,13.3040,4.60072,2470.343,2022-9-17T07:57:43Z
2022-09-17T05:58:53Z,42.805,6.029,13.3041,4.60062,2470.366,2022-9-17T08:00:46Z
2022-09-17T06:01:57Z,42.805,6.029,13.3041,4.60063,2470.357,2022-9-17T08:03:49Z
2022-09-17T06:05:00Z,42.805,6.029,13.3031,4.60056,2470.343,2022-9-17T08:06:52Z
2022-09-17T06:08:03Z,42.805,6.029,13.3014,4.60062,2470.366,2022-9-17T08:09:55Z
2022-09-17T06:11:06Z,42.805,6.029,13.3013,4.60057,2470.366,2022-9-17T08:12:58Z
2022-09-17T06:14:09Z,42.805,6.029,13.3010,4.60066,2470.343,2022-9-17T08:16:02Z
2022-09-17T06:17:12Z,42.805,6.029,13.3012,4.60084,2470.343,2022-9-17T08:19:05Z
2022-09-17T06:20:15Z,42.805,6.029,13.3014,4.60058,2470.32,2022-9-17T08:22:08Z
2022-09-17T06:23:18Z,42.805,6.029,13.3019,4.60059,2470.297,2022-9-17T08:25:11Z
2022-09-17T06:26:22Z,42.805,6.029,13.3017,4.60062,2470.334,2022-9-17T08:28:14Z
2022-09-17T06:29:25Z,42.805,6.029,13.3015,4.60074,2470.32,2022-9-17T08:31:17Z
2022-09-17T06:32:28Z,42.805,6.029,13.3014,4.60077,2470.357,2022-9-17T08:34:20Z
2022-09-17T06:35:31Z,42.805,6.029,13.3014,4.60074,2470.357,2022-9-17T08:37:23Z
2022-09-17T06:38:34Z,42.805,6.029,13.3016,4.60065,2470.366,2022-9-17T08:40:27Z
2022-09-17T06:41:37Z,42.805,6.029,13.3007,4.60058,2470.32,2022-9-17T08:43:30Z
2022-09-17T06:44:40Z,42.805,6.029,13.3008,4.60053,2470.366,2022-9-17T08:46:33Z
2022-09-17T06:47:43Z,42.805,6.029,13.3006,4.60056,2470.334,2022-9-17T08:49:36Z
2022-09-17T06:50:47Z,42.805,6.029,13.3006,4.60054,2470.32,2022-9-17T08:52:39Z
2022-09-17T06:53:50Z,42.805,6.029,13.3014,4.60052,2470.357,2022-9-17T08:55:42Z
2022-09-17T06:56:53Z,42.805,6.029,13.3009,4.60052,2470.366,2022-9-17T08:58:45Z
2022-09-17T06:59:56Z,42.805,6.029,13.3009,4.60054,2470.357,2022-9-17T09:01:48Z
2022-09-17T07:02:59Z,42.805,6.029,13.3009,4.60052,2470.38,2022-9-17T09:04:52Z
2022-09-17T07:06:02Z,42.805,6.029,13.3009,4.60054,2470.32,2022-9-17T09:07:55Z
2022-09-17T07:09:05Z,42.805,6.029,13.3011,4.60053,2470.343,2022-9-17T09:10:58Z
2022-09-17T07:12:08Z,42.805,6.029,13.3006,4.60056,2470.343,2022-9-17T09:14:01Z
2022-09-17T07:15:11Z,42.805,6.029,13.3006,4.60052,2470.357,2022-9-17T09:17:04Z
2022-09-17T07:18:15Z,42.805,6.029,13.3006,4.60052,2470.343,2022-9-17T09:20:07Z
2022-09-17T07:21:18Z,42.805,6.029,13.3010,4.60059,2470.357,2022-9-17T09:23:10Z
2022-09-17T07:24:21Z,42.805,6.029,13.3006,4.60057,2470.38,2022-9-17T09:26:13Z
2022-09-17T07:27:24Z,42.805,6.029,13.3009,4.60055,2470.357,2022-9-17T09:29:16Z
2022-09-17T07:30:27Z,42.805,6.029,13.3009,4.60052,2470.39,2022-9-17T09:32:20Z
2022-09-17T07:33:30Z,42.805,6.029,13.3009,4.60054,2470.343,2022-9-17T09:35:23Z
2022-09-17T07:36:33Z,42.805,6.029,13.3008,4.60059,2470.38,2022-9-17T09:38:26Z
2022-09-17T07:39:36Z,42.805,6.029,13.3010,4.60054,2470.343,2022-9-17T09:41:29Z
2022-09-17T07:42:40Z,42.805,6.029,13.3011,4.60051,2470.404,2022-9-17T09:44:32Z
2022-09-17T07:45:43Z,42.805,6.029,13.3011,4.60051,2470.343,2022-9-17T09:47:35Z
2022-09-17T07:48:46Z,42.805,6.029,13.3007,4.60052,2470.38,2022-9-17T09:50:38Z
2022-09-17T07:51:49Z,42.805,6.029,13.3008,4.60051,2470.366,2022-9-17T09:53:42Z
2022-09-17T07:54:52Z,42.805,6.029,13.3006,4.60052,2470.39,2022-9-17T09:56:45Z
2022-09-17T07:57:55Z,42.805,6.029,13.3009,4.60050,2470.366,2022-9-17T09:59:48Z
2022-09-17T08:00:58Z,42.805,6.029,13.3011,4.60054,2470.38,2022-9-17T10:02:51Z
2022-09-17T08:04:01Z,42.805,6.029,13.3005,4.60052,2470.39,2022-9-17T10:05:54Z
2022-09-17T08:07:05Z,42.805,6.029,13.3005,4.60052,2470.39,2022-9-17T10:08:57Z
2022-09-17T08:10:08Z,42.805,6.029,13.3006,4.60052,2470.343,2022-9-17T10:12:00Z
2022-09-17T08:13:11Z,42.805,6.029,13.3008,4.60052,2470.404,2022-9-17T10:15:03Z
2022-09-17T08:16:14Z,42.805,6.029,13.3009,4.60053,2470.404,2022-9-17T10:18:06Z
2022-09-17T08:19:17Z,42.805,6.029,13.3007,4.60053,2470.404,2022-9-17T10:21:10Z
2022-09-17T08:22:20Z,42.805,6.029,13.3009,4.60051,2470.366,2022-9-17T10:24:13Z
2022-09-17T08:25:23Z,42.805,6.029,13.3009,4.60050,2470.404,2022-9-17T10:27:16Z
2022-09-17T08:28:26Z,42.805,6.029,13.3005,4.60052,2470.38,2022-9-17T10:30:19Z
2022-09-17T08:31:30Z,42.805,6.029,13.3012,4.60052,2470.413,2022-9-17T10:33:22Z
2022-09-17T08:34:33Z,42.805,6.029,13.3011,4.60054,2470.39,2022-9-17T10:36:25Z
2022-09-17T08:37:36Z,42.805,6.029,13.3009,4.60049,2470.427,2022-9-17T10:39:28Z
2022-09-17T08:40:39Z,42.805,6.029,13.3006,4.60054,2470.413,2022-9-17T10:42:32Z
2022-09-17T08:43:42Z,42.805,6.029,13.3006,4.60055,2470.413,2022-9-17T10:45:35Z
2022-09-17T08:46:45Z,42.805,6.029,13.3009,4.60050,2470.38,2022-9-17T10:48:38Z
2022-09-17T08:49:48Z,42.805,6.029,13.3008,4.60052,2470.39,2022-9-17T10:51:41Z
2022-09-17T08:52:51Z,42.805,6.029,13.3011,4.60055,2470.413,2022-9-17T10:54:44Z
2022-09-17T08:55:55Z,42.805,6.029,13.3007,4.60056,2470.404,2022-9-17T10:57:47Z
2022-09-17T08:58:58Z,42.805,6.029,13.3011,4.60051,2470.404,2022-9-17T11:00:50Z
2022-09-17T09:02:01Z,42.805,6.029,13.3009,4.60056,2470.404,2022-9-17T11:03:53Z
2022-09-17T09:05:04Z,42.805,6.029,13.3012,4.60057,2470.427,2022-9-17T11:06:57Z
2022-09-17T09:08:07Z,42.805,6.029,13.3004,4.60057,2470.39,2022-9-17T11:10:00Z
2022-09-17T09:11:10Z,42.805,6.029,13.3008,4.60061,2470.413,2022-9-17T11:13:03Z
2022-09-17T09:14:13Z,42.805,6.029,13.3012,4.60053,2470.376,2022-9-17T11:16:06Z
2022-09-17T09:17:16Z,42.805,6.029,13.3010,4.60056,2470.404,2022-9-17T11:19:09Z
2022-09-17T09:20:20Z,42.805,6.029,13.3011,4.60055,2470.413,2022-9-17T11:22:12Z
2022-09-17T09:23:23Z,42.805,6.029,13.3010,4.60062,2470.404,2022-9-17T11:25:15Z
2022-09-17T09:26:26Z,42.805,6.029,13.3006,4.60051,2470.404,2022-9-17T11:28:18Z
2022-09-17T09:29:29Z,42.805,6.029,13.3015,4.60057,2470.45,2022-9-17T11:31:22Z
2022-09-17T09:32:32Z,42.805,6.029,13.3019,4.60053,2470.413,2022-9-17T11:34:25Z
2022-09-17T09:35:35Z,42.805,6.029,13.3012,4.60054,2470.413,2022-9-17T11:37:28Z
2022-09-17T09:38:38Z,42.805,6.029,13.3013,4.60056,2470.437,2022-9-17T11:40:31Z
2022-09-17T09:41:42Z,42.805,6.029,13.3046,4.60054,2470.413,2022-9-17T11:43:34Z
2022-09-17T09:44:45Z,42.805,6.029,13.3048,4.60069,2470.437,2022-9-17T11:46:37Z
2022-09-17T09:47:48Z,42.805,6.029,13.3027,4.60065,2470.437,2022-9-17T11:49:40Z
2022-09-17T09:50:51Z,42.805,6.029,13.3018,4.60054,2470.46,2022-9-17T11:52:43Z
2022-09-17T09:53:54Z,42.805,6.029,13.3011,4.60056,2470.474,2022-9-17T11:55:47Z
2022-09-17T09:56:57Z,42.805,6.029,13.3015,4.60052,2470.483,2022-9-17T11:58:50Z
2022-09-17T10:00:00Z,42.805,6.029,13.3015,4.60067,2470.413,2022-9-17T12:01:53Z
2022-09-17T10:03:03Z,42.805,6.029,13.3035,4.60088,2470.46,2022-9-17T12:04:56Z
2022-09-17T10:06:06Z,42.805,6.029,13.3053,4.60088,2470.437,2022-9-17T12:07:59Z
2022-09-17T10:09:10Z,42.805,6.029,13.3048,4.60084,2470.46,2022-9-17T12:11:02Z
2022-09-17T10:12:13Z,42.805,6.029,13.3046,4.60085,2470.497,2022-9-17T12:14:05Z
2022-09-17T10:15:16Z,42.805,6.029,13.3040,4.60073,2470.45,2022-9-17T12:17:08Z
2022-09-17T10:18:19Z,42.805,6.029,13.3034,4.60103,2470.46,2022-9-17T12:20:12Z
2022-09-17T10:21:22Z,42.805,6.029,13.3039,4.60118,2470.45,2022-9-17T12:23:15Z
2022-09-17T10:24:25Z,42.805,6.029,13.3046,4.60099,2470.507,2022-9-17T12:26:18Z
2022-09-17T10:27:28Z,42.805,6.029,13.3057,4.60084,2470.474,2022-9-17T12:29:21Z
2022-09-17T10:30:32Z,42.805,6.029,13.3040,4.60103,2470.474,2022-9-17T12:32:24Z
2022-09-17T10:33:35Z,42.805,6.029,13.3035,4.60064,2470.47,2022-9-17T12:35:27Z
2022-09-17T10:36:38Z,42.805,6.029,13.3030,4.60068,2470.46,2022-9-17T12:38:30Z
2022-09-17T10:39:41Z,42.805,6.029,13.3020,4.60059,2470.52,2022-9-17T12:41:33Z
2022-09-17T10:42:44Z,42.805,6.029,13.3034,4.60079,2470.474,2022-9-17T12:44:37Z
2022-09-17T10:45:47Z,42.805,6.029,13.3017,4.60067,2470.483,2022-9-17T12:47:40Z
2022-09-17T10:48:50Z,42.805,6.029,13.3036,4.60078,2470.46,2022-9-17T12:50:43Z
2022-09-17T10:51:53Z,42.805,6.029,13.3019,4.60072,2470.437,2022-9-17T12:53:46Z
2022-09-17T10:54:57Z,42.805,6.029,13.3038,4.60110,2470.483,2022-9-17T12:56:49Z
2022-09-17T10:58:00Z,42.805,6.029,13.3034,4.60089,2470.45,2022-9-17T12:59:52Z
2022-09-17T11:01:03Z,42.805,6.029,13.3032,4.60079,2470.45,2022-9-17T13:02:55Z
2022-09-17T11:04:06Z,42.805,6.029,13.3038,4.60079,2470.437,2022-9-17T13:05:58Z
2022-09-17T11:07:09Z,42.805,6.029,13.3047,4.60084,2470.497,2022-9-17T13:09:02Z
2022-09-17T11:10:12Z,42.805,6.029,13.3036,4.60112,2470.437,2022-9-17T13:12:05Z
2022-09-17T11:13:15Z,42.805,6.029,13.3041,4.60092,2470.46,2022-9-17T13:15:08Z
2022-09-17T11:16:18Z,42.805,6.029,13.3039,4.60074,2470.46,2022-9-17T13:18:11Z
2022-09-17T11:19:22Z,42.805,6.029,13.3032,4.60072,2470.413,2022-9-17T13:21:14Z
2022-09-17T11:22:25Z,42.805,6.029,13.3035,4.60112,2470.46,2022-9-17T13:24:17Z
2022-09-17T11:25:28Z,42.805,6.029,13.3057,4.60144,2470.46,2022-9-17T13:27:20Z
2022-09-17T11:28:31Z,42.805,6.029,13.3041,4.60132,2470.437,2022-9-17T13:30:23Z
2022-09-17T11:31:34Z,42.805,6.029,13.3030,4.60094,2470.474,2022-9-17T13:33:27Z
2022-09-17T11:34:37Z,42.805,6.029,13.3034,4.60096,2470.46,2022-9-17T13:36:30Z
2022-09-17T11:37:40Z,42.805,6.029,13.3031,4.60105,2470.483,2022-9-17T13:39:33Z
2022-09-17T11:40:43Z,42.805,6.029,13.3031,4.60104,2470.46,2022-9-17T13:42:36Z
2022-09-17T11:43:47Z,42.805,6.029,13.3043,4.60093,2470.474,2022-9-17T13:45:39Z
2022-09-17T11:46:50Z,42.805,6.029,13.3031,4.60104,2470.46,2022-9-17T13:48:42Z
2022-09-17T11:49:53Z,42.805,6.029,13.3041,4.60090,2470.46,2022-9-17T13:51:45Z
2022-09-17T11:52:56Z,42.805,6.029,13.3057,4.60110,2470.45,2022-9-17T13:54:49Z
2022-09-17T11:55:59Z,42.805,6.029,13.3034,4.60125,2470.437,2022-9-17T13:57:52Z
2022-09-17T11:59:02Z,42.805,6.029,13.3043,4.60141,2470.474,2022-9-17T14:00:55Z
2022-09-17T12:02:05Z,42.805,6.029,13.3052,4.60135,2470.497,2022-9-17T14:03:58Z
2022-09-17T12:05:08Z,42.805,6.029,13.3031,4.60106,2470.437,2022-9-17T14:07:01Z
2022-09-17T12:08:12Z,42.805,6.029,13.3030,4.60107,2470.46,2022-9-17T14:10:04Z
2022-09-17T12:11:15Z,42.805,6.029,13.3031,4.60104,2470.423,2022-9-17T14:13:07Z
2022-09-17T12:14:18Z,42.805,6.029,13.3040,4.60126,2470.46,2022-9-17T14:16:10Z
2022-09-17T12:17:21Z,42.805,6.029,13.3046,4.60137,2470.474,2022-9-17T14:19:14Z
2022-09-17T12:20:24Z,42.805,6.029,13.3034,4.60126,2470.45,2022-9-17T14:22:17Z
2022-09-17T12:23:27Z,42.805,6.029,13.3031,4.60157,2470.45,2022-9-17T14:25:20Z
2022-09-17T12:26:30Z,42.805,6.029,13.3033,4.60140,2470.413,2022-9-17T14:28:23Z
2022-09-17T12:29:33Z,42.805,6.029,13.3044,4.60101,2470.45,2022-9-17T14:31:26Z
2022-09-17T12:32:37Z,42.805,6.029,13.3039,4.60112,2470.46,2022-9-17T14:34:29Z
2022-09-17T12:35:40Z,42.805,6.029,13.3046,4.60097,2470.427,2022-9-17T14:37:32Z
2022-09-17T12:38:43Z,42.805,6.029,13.3051,4.60097,2470.45,2022-9-17T14:40:35Z
2022-09-17T12:41:46Z,42.805,6.029,13.3037,4.60098,2470.474,2022-9-17T14:43:39Z
2022-09-17T12:44:49Z,42.805,6.029,13.3047,4.60099,2470.437,2022-9-17T14:46:42Z
2022-09-17T12:47:52Z,42.805,6.029,13.3035,4.60116,2470.46,2022-9-17T14:49:45Z
2022-09-17T12:50:55Z,42.805,6.029,13.3029,4.60122,2470.437,2022-9-17T14:52:48Z
2022-09-17T12:53:58Z,42.805,6.029,13.3029,4.60125,2470.45,2022-9-17T14:55:51Z
2022-09-17T12:57:02Z,42.805,6.029,13.3044,4.60084,2470.437,2022-9-17T14:58:54Z
2022-09-17T13:00:05Z,42.805,6.029,13.3020,4.60110,2470.45,2022-9-17T15:01:57Z
2022-09-17T13:03:08Z,42.805,6.029,13.3031,4.60111,2470.474,2022-9-17T15:05:00Z
2022-09-17T13:06:11Z,42.805,6.029,13.3036,4.60134,2470.45,2022-9-17T15:08:04Z
2022-09-17T13:09:14Z,42.805,6.029,13.3023,4.60119,2470.474,2022-9-17T15:11:07Z
2022-09-17T13:12:17Z,42.805,6.029,13.3024,4.60127,2470.437,2022-9-17T15:14:10Z
2022-09-17T13:15:20Z,42.805,6.029,13.3031,4.60121,2470.427,2022-9-17T15:17:13Z
2022-09-17T13:18:23Z,42.805,6.029,13.3034,4.60113,2470.404,2022-9-17T15:20:16Z
2022-09-17T13:21:27Z,42.805,6.029,13.3058,4.60102,2470.45,2022-9-17T15:23:19Z
2022-09-17T13:24:30Z,42.805,6.029,13.3046,4.60132,2470.45,2022-9-17T15:26:22Z
2022-09-17T13:27:33Z,42.805,6.029,13.3026,4.60114,2470.45,2022-9-17T15:29:25Z
2022-09-17T13:30:36Z,42.805,6.029,13.3028,4.60107,2470.46,2022-9-17T15:32:29Z
2022-09-17T13:33:39Z,42.805,6.029,13.3039,4.60105,2470.413,2022-9-17T15:35:32Z
2022-09-17T13:36:42Z,42.805,6.029,13.3025,4.60110,2470.437,2022-9-17T15:38:35Z
2022-09-17T13:39:45Z,42.805,6.029,13.3025,4.60097,2470.437,2022-9-17T15:41:38Z
2022-09-17T13:42:49Z,42.805,6.029,13.3024,4.60132,2470.413,2022-9-17T15:44:41Z
2022-09-17T13:45:52Z,42.805,6.029,13.3029,4.60093,2470.437,2022-9-17T15:47:44Z
2022-09-17T13:48:55Z,42.805,6.029,13.3014,4.60114,2470.404,2022-9-17T15:50:47Z
2022-09-17T13:51:58Z,42.805,6.029,13.3025,4.60101,2470.437,2022-9-17T15:53:50Z
2022-09-17T13:55:01Z,42.805,6.029,13.3038,4.60104,2470.437,2022-9-17T15:56:54Z
2022-09-17T13:58:04Z,42.805,6.029,13.3021,4.60119,2470.437,2022-9-17T15:59:57Z
2022-09-17T14:01:07Z,42.805,6.029,13.3027,4.60117,2470.46,2022-9-17T16:03:00Z
2022-09-17T14:04:10Z,42.805,6.029,13.3041,4.60120,2470.413,2022-9-17T16:06:03Z
2022-09-17T14:07:14Z,42.805,6.029,13.3029,4.60131,2470.404,2022-9-17T16:09:06Z
2022-09-17T14:10:17Z,42.805,6.029,13.3031,4.60127,2470.413,2022-9-17T16:12:09Z
2022-09-17T14:13:20Z,42.805,6.029,13.3036,4.60140,2470.437,2022-9-17T16:15:12Z
2022-09-17T14:16:23Z,42.805,6.029,13.3033,4.60110,2470.39,2022-9-17T16:18:15Z
2022-09-17T14:19:26Z,42.805,6.029,13.3034,4.60117,2470.437,2022-9-17T16:21:19Z
2022-09-17T14:22:29Z,42.805,6.029,13.3031,4.60123,2470.427,2022-9-17T16:24:22Z
2022-09-17T14:25:32Z,42.805,6.029,13.3042,4.60126,2470.45,2022-9-17T16:27:25Z
2022-09-17T14:28:35Z,42.805,6.029,13.3051,4.60102,2470.413,2022-9-17T16:30:28Z
2022-09-17T14:31:38Z,42.805,6.029,13.3049,4.60122,2470.437,2022-9-17T16:33:31Z
2022-09-17T14:34:42Z,42.805,6.029,13.3043,4.60129,2470.413,2022-9-17T16:36:34Z
2022-09-17T14:37:45Z,42.805,6.029,13.3033,4.60132,2470.45,2022-9-17T16:39:37Z
2022-09-17T14:40:48Z,42.805,6.029,13.3047,4.60143,2470.474,2022-9-17T16:42:40Z
2022-09-17T14:43:51Z,42.805,6.029,13.3035,4.60117,2470.427,2022-9-17T16:45:44Z
2022-09-17T14:46:54Z,42.805,6.029,13.3024,4.60133,2470.404,2022-9-17T16:48:47Z
2022-09-17T14:49:57Z,42.805,6.029,13.3033,4.60114,2470.427,2022-9-17T16:51:50Z
2022-09-17T14:53:00Z,42.805,6.029,13.3039,4.60144,2470.427,2022-9-17T16:54:53Z
2022-09-17T14:56:04Z,42.805,6.029,13.3026,4.60135,2470.45,2022-9-17T16:57:56Z
2022-09-17T14:59:07Z,42.805,6.029,13.3048,4.60126,2470.437,2022-9-17T17:00:59Z
2022-09-17T15:02:10Z,42.805,6.029,13.3046,4.60119,2470.45,2022-9-17T17:04:02Z
2022-09-17T15:05:13Z,42.805,6.029,13.3031,4.60155,2470.413,2022-9-17T17:07:05Z
2022-09-17T15:08:16Z,42.805,6.029,13.3037,4.60141,2470.404,2022-9-17T17:10:09Z
2022-09-17T15:11:19Z,42.805,6.029,13.3024,4.60101,2470.45,2022-9-17T17:13:12Z
2022-09-17T15:14:22Z,42.805,6.029,13.3028,4.60144,2470.366,2022-9-17T17:16:15Z